Weather History for Gwinner, ND

Change the Weather History Date:

Tuesday, May 8, 2012

  Actual Average (KP67) Record (KP67)
Temperature  
Mean Temperature 50 °F -  
Max Temperature 55 °F 62 °F 53 °F (1998)
Min Temperature 44 °F 41 °F 37 °F (1997)
Degree Days  
Heating Degree Days 16    
Moisture  
Dew Point 47 °F    
Average Humidity 86    
Maximum Humidity 100    
Minimum Humidity 67    
Precipitation  
Precipitation 0.00 in - - ()
Sea Level Pressure  
Sea Level Pressure 30.01 in    
Wind  
Wind Speed 14 mph (NNW)    
Max Wind Speed 25 mph    
Max Gust Speed 31 mph    
Averages and records for this station are not official NWS values.
T = Trace of Precipitation, MM = Missing Value Source: NWS Daily Summary

Daily Weather History Graph

Daily Weather History Graph

Search for Another Location

Airport:

Trip Planner

Search our weather history database for the weather conditions in past years. The results will help you decide how hot, cold, wet, or windy it might be!

Date:

Astronomy

May. 08, 2012 Rise Set
Actual Time 6:06 AM CDT 8:48 PM CDT
Civil Twilight 5:31 AM CDT 9:23 PM CDT
Nautical Twilight 4:48 AM CDT 10:07 PM CDT
Astronomical Twilight 3:57 AM CDT 10:58 PM CDT
Moon No Moon Rise 8:10 AM CDT (5/8)
Length of Visible Light 15h 51m
Length of Day
14h 42m
Waning Gibbous, 90% of the Moon is Illuminated
May 8
Waning Gibbous
May 12
Last Quarter
May 20
New
May 28
First Quarter
Jun 4
Full

Hourly Weather History & Observations

Time (CDT) Temp. Windchill Dew Point Humidity Pressure Visibility Wind Dir Wind Speed Gust Speed Precip Events Conditions
12:15 AM 51.8 °F - 46.4 °F 82% 29.94 in - WNW 11.5 mph - 0.00 in   Mostly Cloudy
12:35 AM 51.8 °F - 46.4 °F 82% 29.94 in - West 12.7 mph - 0.00 in   Overcast
1:35 AM 51.8 °F - 48.2 °F 88% 29.93 in - WNW 15.0 mph - 0.00 in   Overcast
1:55 AM 51.8 °F - 48.2 °F 88% 29.93 in - WNW 13.8 mph - 0.00 in   Overcast
2:15 AM 51.8 °F - 48.2 °F 88% 29.93 in - WNW 13.8 mph 18.4 mph 0.00 in   Overcast
2:35 AM 50.0 °F - 48.2 °F 94% 29.93 in - WNW 13.8 mph - 0.00 in   Overcast
2:55 AM 50.0 °F - 48.2 °F 94% 29.92 in - WNW 12.7 mph - 0.00 in   Overcast
3:15 AM 50.0 °F - 48.2 °F 94% 29.92 in - WNW 10.4 mph - 0.00 in   Overcast
3:35 AM 50.0 °F - 48.2 °F 94% 29.93 in - NW 12.7 mph - 0.00 in   Unknown
3:55 AM 48.2 °F - 48.2 °F 100% 29.93 in - NW 12.7 mph - 0.00 in   Unknown
4:15 AM 48.2 °F - 48.2 °F 100% 29.93 in - NW 12.7 mph 18.4 mph 0.00 in   Unknown
4:35 AM 48.2 °F - 48.2 °F 100% 29.93 in - NW 12.7 mph - 0.00 in   Overcast
4:55 AM 48.2 °F - 48.2 °F 100% 29.94 in - NW 11.5 mph 18.4 mph 0.00 in   Unknown
5:15 AM 48.2 °F - 48.2 °F 100% 29.94 in - NW 11.5 mph - 0.00 in   Unknown
5:35 AM 48.2 °F - 48.2 °F 100% 29.94 in - NW 13.8 mph - 0.00 in   Overcast
5:55 AM 48.2 °F - 48.2 °F 100% 29.95 in - NW 12.7 mph - 0.00 in   Unknown
6:15 AM 46.4 °F 41.1 °F 46.4 °F 100% 29.95 in - NW 11.5 mph 18.4 mph 0.00 in   Unknown
6:55 AM 46.4 °F 40.4 °F 46.4 °F 100% 29.96 in - NW 13.8 mph - 0.00 in   Unknown
7:15 AM 46.4 °F 41.1 °F 46.4 °F 100% 29.96 in - NW 11.5 mph 17.3 mph 0.00 in   Unknown
7:35 AM 46.4 °F 40.4 °F 46.4 °F 100% 29.97 in - NW 13.8 mph - 0.00 in   Unknown
7:55 AM 46.4 °F 40.1 °F 46.4 °F 100% 29.97 in - NNW 15.0 mph - 0.00 in   Unknown
8:15 AM 48.2 °F - 48.2 °F 100% 29.98 in - NNW 15.0 mph 19.6 mph 0.00 in   Unknown
8:35 AM 48.2 °F - 48.2 °F 100% 29.98 in - NNW 18.4 mph - 0.00 in   Unknown
8:55 AM 48.2 °F - 48.2 °F 100% 29.99 in - NNW 19.6 mph 25.3 mph 0.00 in   Overcast
9:15 AM 48.2 °F - 46.4 °F 93% 29.99 in - NNW 17.3 mph 25.3 mph 0.00 in   Overcast
9:35 AM 48.2 °F - 46.4 °F 93% 30.00 in - NNW 17.3 mph - 0.00 in   Overcast
9:55 AM 50.0 °F - 48.2 °F 94% 30.00 in - NNW 18.4 mph 23.0 mph 0.00 in   Unknown
10:15 AM 51.8 °F - 48.2 °F 88% 30.00 in - NW 17.3 mph 21.9 mph 0.00 in   Overcast
10:35 AM 51.8 °F - 46.4 °F 82% 30.00 in - NNW 18.4 mph 26.5 mph 0.00 in   Overcast
10:55 AM 51.8 °F - 46.4 °F 82% 30.01 in - NNW 24.2 mph - 0.00 in   Overcast
11:15 AM 50.0 °F - 48.2 °F 94% 30.01 in - NNW 19.6 mph - 0.00 in   Overcast
11:35 AM 51.8 °F - 48.2 °F 88% 30.01 in - NNW 18.4 mph - 0.00 in   Overcast
11:55 AM 51.8 °F - 48.2 °F 88% 30.02 in - North 20.7 mph - 0.00 in   Unknown
12:15 PM 51.8 °F - 48.2 °F 88% 30.02 in - North 18.4 mph 25.3 mph 0.00 in   Unknown
12:35 PM 50.0 °F - 50.0 °F 100% 30.02 in - NNW 15.0 mph 19.6 mph 0.00 in   Unknown
1:15 PM 53.6 °F - 46.4 °F 77% 30.02 in - NNW 23.0 mph 27.6 mph 0.00 in   Overcast
1:35 PM 55.4 °F - 48.2 °F 77% 30.02 in - NNW 25.3 mph 31.1 mph 0.00 in   Mostly Cloudy
1:55 PM 55.4 °F - 44.6 °F 67% 30.02 in - NNW 21.9 mph 29.9 mph 0.00 in   Mostly Cloudy
2:15 PM 53.6 °F - 46.4 °F 77% 30.03 in - North 19.6 mph 27.6 mph 0.00 in   Mostly Cloudy
2:35 PM 55.4 °F - 48.2 °F 77% 30.03 in - NNW 18.4 mph 27.6 mph 0.00 in   Mostly Cloudy
2:55 PM 55.4 °F - 46.4 °F 72% 30.03 in - North 20.7 mph 25.3 mph 0.00 in   Overcast
3:15 PM 53.6 °F - 46.4 °F 77% 30.03 in - North 16.1 mph - 0.00 in   Overcast
3:35 PM 53.6 °F - 44.6 °F 72% 30.04 in - NNW 19.6 mph 25.3 mph 0.00 in   Overcast
3:55 PM 53.6 °F - 44.6 °F 72% 30.04 in - NNW 19.6 mph 26.5 mph 0.00 in   Overcast
4:15 PM 53.6 °F - 44.6 °F 72% 30.04 in - North 17.3 mph 26.5 mph 0.00 in   Mostly Cloudy
4:35 PM 53.6 °F - 44.6 °F 72% 30.05 in - NNW 17.3 mph - 0.00 in   Mostly Cloudy
4:55 PM 53.6 °F - 44.6 °F 72% 30.05 in - NNW 17.3 mph 24.2 mph 0.00 in   Overcast
5:15 PM 53.6 °F - 44.6 °F 72% 30.05 in - North 18.4 mph 24.2 mph 0.00 in   Overcast
5:35 PM 55.4 °F - 44.6 °F 67% 30.05 in - North 18.4 mph 23.0 mph 0.00 in   Overcast
6:15 PM 55.4 °F - 44.6 °F 67% 30.05 in - NNW 13.8 mph - 0.00 in   Overcast
6:35 PM 55.4 °F - 44.6 °F 67% 30.06 in - NNW 19.6 mph 23.0 mph 0.00 in   Mostly Cloudy
6:55 PM 55.4 °F - 44.6 °F 67% 30.06 in - NNW 15.0 mph - 0.00 in   Overcast
7:15 PM 53.6 °F - 44.6 °F 72% 30.07 in - NNW 16.1 mph 20.7 mph 0.00 in   Overcast
8:15 PM 53.6 °F - 44.6 °F 72% 30.07 in - North 16.1 mph - 0.00 in   Overcast
8:35 PM 53.6 °F - 44.6 °F 72% 30.07 in - NNW 12.7 mph - 0.00 in   Overcast
8:55 PM 53.6 °F - 44.6 °F 72% 30.07 in - North 9.2 mph - 0.00 in   Overcast
9:15 PM 51.8 °F - 44.6 °F 76% 30.08 in - North 9.2 mph - 0.00 in   Overcast
9:35 PM 51.8 °F - 44.6 °F 76% 30.08 in - NNW 8.1 mph - 0.00 in   Overcast
10:15 PM 50.0 °F - 44.6 °F 82% 30.09 in - NW 5.8 mph - 0.00 in   Overcast
10:35 PM 50.0 °F - 44.6 °F 82% 30.10 in - NW 5.8 mph - 0.00 in   Overcast
10:55 PM 48.2 °F - 44.6 °F 87% 30.09 in - NNW 5.8 mph - 0.00 in   Overcast
11:15 PM 46.4 °F 43.5 °F 44.6 °F 93% 30.09 in - NW 5.8 mph - 0.00 in   Unknown
11:35 PM 44.6 °F 40.2 °F 44.6 °F 100% 30.10 in - NW 8.1 mph - 0.00 in   Unknown
11:55 PM 48.2 °F - 44.6 °F 87% 30.10 in - NW 8.1 mph - 0.00 in   Mostly Cloudy